Aberdeen, SD

10:55 PM CDT on May 22, 2017 (GMT -0500)
Aberdeen Regional

Weather History for KABR - August, 2013

Change the Weather History Date:

Tuesday, August 27, 2013

  Actual Average Record
Temperature  
Mean Temperature 81 °F 67 °F  
Max Temperature 93 °F 80 °F 106 °F (1973)
Min Temperature 68 °F 54 °F 38 °F (1967)
Degree Days  
Heating Degree Days 0 2  
Month to date heating degree days 19 28  
Since 1 June heating degree days 132 118  
Since 1 July heating degree days 51 42  
Cooling Degree Days 16 4  
Month to date cooling degree days 129 148  
Year to date cooling degree days 440 471  
Since 1 June cooling degree days 419 448  
Growing Degree Days 31 (Base 50)    
Moisture  
Dew Point 68 °F    
Average Humidity 67    
Maximum Humidity 97    
Minimum Humidity 36    
Precipitation  
Precipitation 0.00 in 0.08 in 0.67 in (1975)
Month to date precipitation 0.05 2.12  
Year to date precipitation 13.47 15.98  
Sea Level Pressure  
Sea Level Pressure 29.84 in    
Wind  
Wind Speed 8 mph (NE)    
Max Wind Speed 14 mph    
Max Gust Speed 17 mph    
Visibility 10 miles    
Events      
T = Trace of Precipitation, MM = Missing Value Source: NWS Daily Summary

Daily Weather History Graph

Daily Weather History Graph

Search for Another Location

Airport or City:

Trip Planner

Search our weather history database for the weather conditions in past years. The results will help you decide how hot, cold, wet, or windy it might be!

Date:

Astronomy

Aug. 27, 2013 Rise Set
Actual Time 6:49 AM CDT 8:19 PM CDT
Civil Twilight 6:18 AM CDT 8:50 PM CDT
Nautical Twilight 5:40 AM CDT 9:28 PM CDT
Astronomical Twilight 5:00 AM CDT 10:08 PM CDT
Moon 11:52 PM CDT (8/27) 2:10 PM CDT (8/27)
Length of Visible Light 14h 32m
Length of Day
13h 30m
Waning Gibbous, 57% of the Moon is Illuminated
Aug 27
Waning Gibbous
Aug 28
Last Quarter
Sep 5
New
Sep 12
First Quarter
Sep 19
Full

Hourly Weather History & Observations

Time (CDT) Temp. Heat Index Dew Point Humidity Pressure Visibility Wind Dir Wind Speed Gust Speed Precip Events Conditions
12:53 AM 73.9 °F - 72.0 °F 93% 29.78 in 10.0 mi North 8.1 mph - N/A   Clear
1:53 AM 73.0 °F - 70.0 °F 90% 29.78 in 10.0 mi NNE 6.9 mph - N/A   Clear
2:53 AM 71.1 °F - 69.1 °F 93% 29.77 in 10.0 mi North 4.6 mph - N/A   Clear
3:53 AM 71.1 °F - 69.1 °F 93% 29.79 in 10.0 mi North 9.2 mph - N/A   Clear
4:53 AM 70.0 °F - 68.0 °F 93% 29.79 in 10.0 mi North 5.8 mph - N/A   Clear
5:53 AM 69.1 °F - 66.9 °F 93% 29.79 in 10.0 mi North 6.9 mph - N/A   Clear
6:53 AM 69.1 °F - 66.9 °F 93% 29.83 in 9.0 mi North 6.9 mph - N/A   Clear
7:53 AM 69.1 °F - 66.0 °F 90% 29.84 in 9.0 mi North 8.1 mph - N/A   Clear
8:53 AM 73.0 °F - 66.9 °F 81% 29.86 in 10.0 mi North 8.1 mph - N/A   Partly Cloudy
9:53 AM 77.0 °F - 69.1 °F 76% 29.86 in 10.0 mi North 8.1 mph - N/A   Clear
10:53 AM 82.0 °F 85.9 °F 70.0 °F 67% 29.88 in 10.0 mi North 8.1 mph - N/A   Clear
11:53 AM 84.0 °F 89.0 °F 71.1 °F 65% 29.88 in 10.0 mi NE 8.1 mph - N/A   Clear
12:53 PM 87.1 °F 92.0 °F 70.0 °F 57% 29.87 in 10.0 mi NE 10.4 mph - N/A   Clear
1:53 PM 90.0 °F 93.6 °F 68.0 °F 48% 29.86 in 10.0 mi ENE 10.4 mph - N/A   Clear
2:53 PM 90.0 °F 93.6 °F 68.0 °F 48% 29.85 in 10.0 mi East 6.9 mph - N/A   Clear
3:53 PM 91.9 °F 91.8 °F 61.0 °F 35% 29.84 in 10.0 mi ENE 9.2 mph - N/A   Clear
4:53 PM 91.9 °F 91.8 °F 61.0 °F 35% 29.84 in 10.0 mi East 8.1 mph - N/A   Clear
5:53 PM 91.0 °F 91.9 °F 63.0 °F 39% 29.85 in 10.0 mi ENE 10.4 mph - N/A   Clear
6:53 PM 89.1 °F 92.9 °F 68.0 °F 50% 29.85 in 10.0 mi NE 8.1 mph - N/A   Clear
7:53 PM 82.0 °F 85.5 °F 69.1 °F 65% 29.86 in 10.0 mi ENE 5.8 mph - N/A   Clear
8:53 PM 77.0 °F - 68.0 °F 74% 29.89 in 7.0 mi ENE 3.5 mph - N/A   Clear
9:53 PM 73.9 °F - 69.1 °F 85% 29.89 in 10.0 mi ENE 6.9 mph - N/A   Clear
10:53 PM 72.0 °F - 68.0 °F 87% 29.92 in 10.0 mi NE 5.8 mph - N/A   Clear
11:53 PM 71.1 °F - 68.0 °F 90% 29.92 in 10.0 mi NE 6.9 mph - N/A   Clear